Flag for Germany Weather past 2 weeks in Fürstenwalde/Spree, Brandenburg, Germany

Now
53 °F

Scattered clouds.


Feels Like: 53 °F
Forecast: 32 / 58 °F
Wind: 1 mph from North

Location: Lindenberg


UV Index: 3 (Moderate)

Visibility: 31 mi


Pressure: 30.39 "Hg

Humidity: 35%

Dew point: 26 °F

Location of Fürstenwalde/SpreeLocation

Historic Weather in Fürstenwalde/Spree

°F

Fürstenwalde/Spree temperature yesterday

Maximum temperature yesterday: 51 °F (at 2:00 PM)
Minimum temperature yesterday: 39 °F (at 10:00 PM)
Average temperature yesterday: 44 °F

Past Weeks' High & Low Weather Summary

 TemperatureHumidityPressure
High69 °F (Apr 3, 4:00 PM)99% (Apr 12, 7:00 AM)30.43 "Hg (Apr 12, 7:00 AM)
Low33 °F (Apr 16, 7:00 AM)29% (Apr 16, 2:00 PM)29.65 "Hg (Apr 3, 3:00 PM)
Average50 °F73%29.96 "Hg
* Reported Apr 1 6:00 PM — Apr 16 6:00 PM, Fürstenwalde/Spree, Weather by CustomWeather, © 2014

Note: Actual official high and low records may vary slightly from our data, if they occured in-between our weather recording intervals... More about our weather records

Advertising

Historic Weather Conditions — Data for Previous 24 hours

 ConditionsComfort  
Time TempWeatherWind HumidityBarometerVisibility
6:00 PM
Apr 16
51 °FPartly sunny.2 mph38%30.40 "Hg31 mi
5:00 PM54 °FPartly sunny.2 mph31%30.41 "Hg31 mi
4:00 PM52 °FPartly sunny.2 mph33%30.41 "Hg28 mi
3:00 PM51 °FPartly sunny.5 mph38%30.42 "Hg28 mi
2:00 PM53 °FScattered clouds.5 mph29%30.42 "Hg25 mi
1:00 PM52 °FScattered clouds.3 mph34%30.42 "Hg25 mi
12:00 PM49 °FPassing clouds.3 mph41%30.43 "Hg25 mi
11:00 AM47 °FPassing clouds.2 mph53%30.43 "Hg22 mi
10:00 AM46 °FPassing clouds.2 mph64%30.43 "Hg19 mi
9:00 AM43 °FPassing clouds.2 mph80%30.41 "Hg12 mi
8:00 AM38 °FPassing clouds.2 mph97%30.40 "Hg9 mi
7:00 AM33 °FPassing clouds.2 mph98%30.38 "Hg5 mi
6:00 AM34 °FClear.2 mph97%30.37 "Hg6 mi
5:00 AM37 °FLow clouds.2 mph95%30.34 "Hg6 mi
4:00 AM37 °FPassing clouds.3 mph99%30.32 "Hg9 mi
3:00 AM35 °FClear.1 mph98%30.30 "Hg5 mi
12:00 AM38 °FPassing clouds.3 mph97%30.25 "Hg25 mi
10:00 PM
Apr 15
39 °FPassing clouds.2 mph95%30.20 "Hg31 mi
9:00 PM42 °FPassing clouds.3 mph93%30.18 "Hg31 mi
8:00 PM43 °FOvercast.2 mph90%30.14 "Hg31 mi
7:00 PM44 °FPartly sunny.3 mph91%30.12 "Hg25 mi
Weather by CustomWeather, © 2014

See weather overview